| time (UTC) | temp F | wind direction | speed MPH | gust MPH | rain 1hr in | rain 24hr in | rain mn in | humidity % | barometer mb |
| 20260508163924 | 50 | 22 | 5.0 | 7.0 | 0.00 | 0.00 | 0.00 | 82 | 1031.1 |
| 20260508163725 | 50 | 0 | 5.0 | 6.0 | 0.00 | 0.00 | 0.00 | 82 | 1049.0 |
| 20260508163225 | 50 | 0 | 2.0 | 8.0 | 0.00 | 0.00 | 0.00 | 82 | 1040.9 |
| 20260508162725 | 50 | 0 | 3.0 | 7.0 | 0.00 | 0.00 | 0.00 | 81 | 1022.5 |
| 20260508162225 | 50 | 0 | 5.0 | 9.0 | 0.00 | 0.00 | 0.00 | 81 | 1050.6 |
| 20260508161725 | 51 | 22 | 4.0 | 8.0 | 0.00 | 0.00 | 0.00 | 80 | 1030.4 |
| 20260508161225 | 51 | 22 | 4.0 | 8.0 | 0.00 | 0.00 | 0.00 | 79 | 1041.5 |
| 20260508160725 | 51 | 292 | 2.0 | 9.0 | 0.00 | 0.00 | 0.00 | 79 | 1047.9 |
| 20260508160624 | 51 | 0 | 2.0 | 9.0 | 0.00 | 0.00 | 0.00 | 79 | 1059.5 |
| 20260508160225 | 52 | 0 | 9.0 | 9.0 | 0.00 | 0.00 | 0.00 | 78 | 1041.0 |
| 20260508155725 | 52 | 337 | 4.0 | 8.0 | 0.00 | 0.00 | 0.00 | 78 | 1044.1 |
| 20260508155235 | 52 | 0 | 8.0 | 8.0 | 0.00 | 0.00 | 0.00 | 77 | 1042.3 |
| 20260508155225 | 52 | 0 | 8.0 | 8.0 | 0.00 | 0.00 | 0.00 | 77 | 1042.3 |
| 20260508154725 | 52 | 0 | 4.0 | 7.0 | 0.00 | 0.00 | 0.00 | 77 | 1039.3 |
| 20260508154225 | 53 | 0 | 2.0 | 5.0 | 0.00 | 0.00 | 0.00 | 76 | 1040.9 |
| 20260508153725 | 53 | 22 | 5.0 | 6.0 | 0.00 | 0.00 | 0.00 | 76 | 1049.7 |
| 20260508153324 | 53 | 0 | 3.0 | 7.0 | 0.00 | 0.00 | 0.00 | 76 | 1022.3 |
| 20260508153225 | 53 | 337 | 2.0 | 7.0 | 0.00 | 0.00 | 0.00 | 76 | 1020.8 |
| 20260508152725 | 53 | 292 | 2.0 | 6.0 | 0.00 | 0.00 | 0.00 | 75 | 1032.1 |
| 20260508152225 | 53 | 315 | 4.0 | 7.0 | 0.00 | 0.00 | 0.00 | 75 | 1042.2 |
| 20260508151725 | 53 | 337 | 7.0 | 8.0 | 0.00 | 0.00 | 0.00 | 74 | 988.4 |
| 20260508151225 | 54 | 315 | 5.0 | 11.0 | 0.00 | 0.00 | 0.00 | 73 | 1054.0 |
| 20260508150725 | 54 | 315 | 2.0 | 9.0 | 0.00 | 0.00 | 0.00 | 72 | 1039.7 |
| 20260508150225 | 54 | 337 | 2.0 | 7.0 | 0.00 | 0.00 | 0.00 | 72 | 1036.6 |
| 20260508150024 | 54 | 337 | 7.0 | 25.0 | 0.00 | 0.00 | 0.00 | 72 | 1035.2 |
| 20260508145725 | 54 | 337 | 3.0 | 25.0 | 0.00 | 0.00 | 0.00 | 71 | 999.1 |
| 20260508145225 | 55 | 337 | 5.0 | 11.0 | 0.00 | 0.00 | 0.00 | 71 | 1010.2 |
| 20260508144725 | 55 | 292 | 4.0 | 5.0 | 0.00 | 0.00 | 0.00 | 71 | 1028.5 |
| 20260508144225 | 55 | 0 | 0.0 | 6.0 | 0.00 | 0.00 | 0.00 | 71 | 1033.4 |
| 20260508143725 | 55 | 22 | 3.0 | 8.0 | 0.00 | 0.00 | 0.00 | 71 | 1018.5 |
| 20260508143225 | 55 | 22 | 5.0 | 9.0 | 0.00 | 0.00 | 0.00 | 71 | 1051.0 |
| 20260508142724 | 55 | 0 | 9.0 | 9.0 | 0.00 | 0.00 | 0.00 | 71 | 1049.0 |
| 20260508142225 | 55 | 22 | 3.0 | 7.0 | 0.00 | 0.00 | 0.00 | 71 | 1016.4 |
| 20260508141725 | 55 | 0 | 5.0 | 6.0 | 0.00 | 0.00 | 0.00 | 71 | 1010.3 |
| 20260508141225 | 55 | 315 | 3.0 | 6.0 | 0.00 | 0.00 | 0.00 | 72 | 1021.9 |
| 20260508140725 | 54 | 292 | 4.0 | 10.0 | 0.00 | 0.00 | 0.00 | 72 | 1059.5 |
| 20260508140225 | 54 | 0 | 3.0 | 9.0 | 0.00 | 0.00 | 0.00 | 72 | 1062.7 |
| 20260508135725 | 54 | 292 | 5.0 | 9.0 | 0.00 | 0.00 | 0.00 | 71 | 1094.1 |
| 20260508135424 | 54 | 337 | 3.0 | 7.0 | 0.00 | 0.00 | 0.00 | 71 | 1030.2 |
| 20260508135225 | 54 | 337 | 5.0 | 8.0 | 0.00 | 0.00 | 0.00 | 71 | 1036.5 |
| 20260508134725 | 54 | 0 | 6.0 | 6.0 | 0.00 | 0.00 | 0.00 | 70 | 1065.8 |
| 20260508134225 | 55 | 0 | 6.0 | 6.0 | 0.00 | 0.00 | 0.00 | 70 | 1075.2 |
| 20260508133725 | 55 | 0 | 3.0 | 6.0 | 0.00 | 0.00 | 0.00 | 70 | 1042.8 |
| 20260508133225 | 55 | 337 | 4.0 | 7.0 | 0.00 | 0.00 | 0.00 | 69 | 1075.3 |
| 20260508132725 | 55 | 337 | 4.0 | 6.0 | 0.00 | 0.00 | 0.00 | 69 | 1090.9 |
| 20260508132225 | 55 | 0 | 2.0 | 9.0 | 0.00 | 0.00 | 0.00 | 69 | 1072.1 |
| 20260508132124 | 55 | 67 | 2.0 | 9.0 | 0.00 | 0.00 | 0.00 | 69 | 1004.1 |
| 20260508131725 | 55 | 337 | 2.0 | 7.0 | 0.00 | 0.00 | 0.00 | 69 | 1019.8 |
| 20260508131225 | 56 | 337 | 4.0 | 10.0 | 0.00 | 0.00 | 0.00 | 68 | 1052.2 |
| 20260508130725 | 56 | 292 | 3.0 | 6.0 | 0.00 | 0.00 | 0.00 | 68 | 1068.9 |
| 20260508130225 | 56 | 45 | 2.0 | 9.0 | 0.00 | 0.00 | 0.00 | 67 | 1042.8 |
| 20260508125725 | 56 | 270 | 4.0 | 10.0 | 0.00 | 0.00 | 0.00 | 67 | 1084.7 |
| 20260508125225 | 56 | 292 | 6.0 | 8.0 | 0.00 | 0.00 | 0.00 | 66 | 1042.8 |
| 20260508124824 | 57 | 315 | 6.0 | 10.0 | 0.00 | 0.00 | 0.00 | 67 | 1091.5 |
| 20260508124725 | 57 | 0 | 8.0 | 10.0 | 0.00 | 0.00 | 0.00 | 67 | 1024.0 |
| 20260508124226 | 57 | 292 | 3.0 | 8.0 | 0.00 | 0.00 | 0.00 | 67 | 1046.0 |
| 20260508123725 | 57 | 315 | 7.0 | 7.0 | 0.00 | 0.00 | 0.00 | 67 | 991.6 |
| 20260508123225 | 57 | 315 | 4.0 | 8.0 | 0.00 | 0.00 | 0.00 | 67 | 1087.8 |
| 20260508122725 | 56 | 315 | 2.0 | 8.0 | 0.00 | 0.00 | 0.00 | 68 | 1084.7 |
| 20260508122225 | 56 | 292 | 8.0 | 8.0 | 0.00 | 0.00 | 0.00 | 69 | 1036.6 |
| 20260508121725 | 56 | 225 | 2.0 | 7.0 | 0.00 | 0.00 | 0.00 | 69 | 1052.2 |
| 20260508121524 | 55 | 0 | 2.0 | 9.0 | 0.00 | 0.00 | 0.00 | 69 | 1049.1 |
| 20260508121225 | 55 | 0 | 5.0 | 9.0 | 0.00 | 0.00 | 0.00 | 69 | 1040.2 |
| 20260508120725 | 55 | 337 | 6.0 | 10.0 | 0.00 | 0.00 | 0.00 | 69 | 1075.3 |
| 20260508120225 | 55 | 292 | 9.0 | 9.0 | 0.00 | 0.00 | 0.00 | 69 | 1039.7 |
| 20260508115725 | 56 | 315 | 8.0 | 8.0 | 0.00 | 0.00 | 0.00 | 69 | 1065.8 |
| 20260508115226 | 56 | 337 | 5.0 | 8.0 | 0.00 | 0.00 | 0.00 | 68 | 1020.7 |
| 20260508114726 | 56 | 292 | 5.0 | 10.0 | 0.00 | 0.00 | 0.00 | 68 | 1001.0 |
| 20260508114224 | 56 | 292 | 5.0 | 9.0 | 0.00 | 0.00 | 0.00 | 67 | 1010.4 |
| 20260508113725 | 57 | 292 | 5.0 | 7.0 | 0.00 | 0.00 | 0.00 | 67 | 923.6 |
| 20260508113225 | 57 | 315 | 4.0 | 12.0 | 0.00 | 0.00 | 0.00 | 67 | 988.4 |
| 20260508112725 | 57 | 292 | 4.0 | 11.0 | 0.00 | 0.00 | 0.00 | 67 | 1036.5 |
| 20260508112225 | 57 | 270 | 3.0 | 10.0 | 0.00 | 0.00 | 0.00 | 67 | 1084.6 |
| 20260508111726 | 57 | 270 | 3.0 | 7.0 | 0.00 | 0.00 | 0.00 | 67 | 1055.3 |
| 20260508111227 | 57 | 315 | 3.0 | 7.0 | 0.00 | 0.00 | 0.00 | 67 | 1078.4 |
| 20260508110924 | 57 | 0 | 2.0 | 8.0 | 0.00 | 0.00 | 0.00 | 66 | 1094.1 |
| 20260508110725 | 57 | 292 | 7.0 | 11.0 | 0.00 | 0.00 | 0.00 | 66 | 988.4 |
| 20260508110225 | 57 | 315 | 9.0 | 10.0 | 0.00 | 0.00 | 0.00 | 67 | 1052.2 |
| 20260508105725 | 57 | 292 | 2.0 | 6.0 | 0.00 | 0.00 | 0.00 | 70 | 1081.5 |
| 20260508105225 | 56 | 315 | 3.0 | 5.0 | 0.00 | 0.00 | 0.00 | 70 | 1007.3 |
| 20260508104726 | 55 | 292 | 5.0 | 6.0 | 0.00 | 0.00 | 0.00 | 69 | 1090.9 |
| 20260508104225 | 56 | 315 | 3.0 | 9.0 | 0.00 | 0.00 | 0.00 | 69 | 1042.8 |
| 20260508103725 | 56 | 337 | 6.0 | 8.0 | 0.00 | 0.00 | 0.00 | 67 | 956.0 |
| 20260508103624 | 57 | 315 | 8.0 | 8.0 | 0.00 | 0.00 | 0.00 | 67 | 997.9 |
| 20260508103225 | 57 | 337 | 6.0 | 8.0 | 0.00 | 0.00 | 0.00 | 67 | 1081.5 |
| 20260508102725 | 57 | 270 | 4.0 | 4.0 | 0.00 | 0.00 | 0.00 | 67 | 1081.5 |
| 20260508102226 | 57 | 292 | 0.0 | 5.0 | 0.00 | 0.00 | 0.00 | 68 | 1090.9 |
| 20260508101726 | 57 | 315 | 0.0 | 4.0 | 0.00 | 0.00 | 0.00 | 67 | 1072.1 |
| 20260508101225 | 57 | 22 | 2.0 | 6.0 | 0.00 | 0.00 | 0.00 | 67 | 1004.1 |
| 20260508100725 | 57 | 292 | 2.0 | 4.0 | 0.00 | 0.00 | 0.00 | 68 | 1046.0 |
| 20260508100324 | 57 | 202 | 0.0 | 4.0 | 0.00 | 0.00 | 0.00 | 68 | 1052.2 |
| 20260508100225 | 57 | 315 | 0.0 | 4.0 | 0.00 | 0.00 | 0.00 | 68 | 1081.5 |
| 20260508095725 | 57 | 315 | 3.0 | 6.0 | 0.00 | 0.00 | 0.00 | 67 | 1087.8 |
| 20260508095225 | 57 | 270 | 1.0 | 5.0 | 0.00 | 0.00 | 0.00 | 67 | 1084.6 |
| 20260508094725 | 58 | 292 | 3.0 | 9.0 | 0.00 | 0.00 | 0.00 | 65 | 1007.9 |
| 20260508094225 | 59 | 22 | 5.0 | 8.0 | 0.00 | 0.00 | 0.00 | 64 | 1081.5 |
| 20260508093725 | 60 | 270 | 6.0 | 8.0 | 0.00 | 0.00 | 0.00 | 64 | 1030.3 |
| 20260508093226 | 61 | 315 | 2.0 | 5.0 | 0.00 | 0.00 | 0.00 | 65 | 1036.6 |
| 20260508093025 | 61 | 292 | 4.0 | 5.0 | 0.00 | 0.00 | 0.00 | 67 | 994.7 |
| 20260508092725 | 61 | 292 | 2.0 | 7.0 | 0.00 | 0.00 | 0.00 | 65 | 1055.4 |
| 20260508092226 | 61 | 292 | 7.0 | 7.0 | 0.00 | 0.00 | 0.00 | 66 | 1036.6 |
| 20260508091725 | 61 | 292 | 0.0 | 4.0 | 0.00 | 0.00 | 0.00 | 70 | 881.7 |
| 20260508091226 | 60 | 292 | 3.0 | 3.0 | 0.00 | 0.00 | 0.00 | 74 | 1027.1 |
| 20260508090726 | 59 | 337 | 1.0 | 5.0 | 0.00 | 0.00 | 0.00 | 75 | 1087.8 |
| 20260508090226 | 57 | 292 | 0.0 | 2.0 | 0.00 | 0.00 | 0.00 | 79 | 1039.7 |
| 20260508085736 | 57 | 270 | 0.0 | 7.0 | 0.00 | 0.00 | 0.00 | 78 | 1085.2 |
| 20260508085725 | 56 | 270 | 0.0 | 7.0 | 0.00 | 0.00 | 0.00 | 78 | 1052.2 |
| 20260508085226 | 56 | 270 | 0.0 | 6.0 | 0.00 | 0.00 | 0.00 | 78 | 1081.5 |
| 20260508084726 | 56 | 337 | 3.0 | 4.0 | 0.00 | 0.00 | 0.00 | 81 | 1049.1 |
| 20260508084226 | 55 | 270 | 1.0 | 3.0 | 0.00 | 0.00 | 0.00 | 82 | 1090.9 |
| 20260508083726 | 54 | 22 | 1.0 | 3.0 | 0.00 | 0.00 | 0.00 | 84 | 1090.9 |
| 20260508083226 | 53 | 22 | 0.0 | 3.0 | 0.00 | 0.00 | 0.00 | 84 | 1078.4 |
| 20260508082726 | 53 | 270 | 2.0 | 6.0 | 0.00 | 0.00 | 0.00 | 84 | 1058.5 |
| 20260508082425 | 52 | 315 | 2.0 | 6.0 | 0.00 | 0.00 | 0.00 | 84 | 1020.8 |
| 20260508082226 | 52 | 292 | 4.0 | 6.0 | 0.00 | 0.00 | 0.00 | 84 | 1072.1 |
| 20260508081726 | 52 | 315 | 4.0 | 5.0 | 0.00 | 0.00 | 0.00 | 85 | 1052.2 |
| 20260508081226 | 53 | 0 | 1.0 | 5.0 | 0.00 | 0.00 | 0.00 | 86 | 1049.1 |
| 20260508080726 | 53 | 315 | 1.0 | 2.0 | 0.00 | 0.00 | 0.00 | 87 | 1007.3 |
| 20260508080226 | 53 | 315 | 0.0 | 2.0 | 0.00 | 0.00 | 0.00 | 88 | 1061.5 |
| 20260508075726 | 52 | 0 | 0.0 | 0.0 | 0.00 | 0.00 | 0.00 | 88 | 1007.3 |
| 20260508075226 | 52 | 247 | 0.0 | 3.0 | 0.00 | 0.00 | 0.00 | 88 | 1049.1 |
| 20260508075125 | 52 | 315 | 2.0 | 3.0 | 0.00 | 0.00 | 0.00 | 89 | 1015.6 |
| 20260508074726 | 51 | 337 | 1.0 | 3.0 | 0.00 | 0.00 | 0.00 | 89 | 1097.2 |
| 20260508074226 | 51 | 22 | 1.0 | 4.0 | 0.00 | 0.00 | 0.00 | 89 | 1013.5 |
| 20260508073726 | 51 | 337 | 3.0 | 5.0 | 0.00 | 0.00 | 0.00 | 89 | 1055.3 |
| 20260508073226 | 50 | 315 | 3.0 | 5.0 | 0.00 | 0.00 | 0.00 | 89 | 1010.4 |
| 20260508072726 | 50 | 0 | 2.0 | 6.0 | 0.00 | 0.00 | 0.00 | 89 | 978.9 |
| 20260508072226 | 50 | 337 | 1.0 | 7.0 | 0.00 | 0.00 | 0.00 | 89 | 997.9 |
| 20260508071825 | 49 | 0 | 4.0 | 5.0 | 0.00 | 0.00 | 0.00 | 89 | 1029.5 |
| 20260508071726 | 49 | 0 | 2.0 | 5.0 | 0.00 | 0.00 | 0.00 | 89 | 981.4 |
| 20260508071226 | 49 | 315 | 4.0 | 6.0 | 0.00 | 0.00 | 0.00 | 89 | 1097.2 |
| 20260508070726 | 49 | 0 | 3.0 | 6.0 | 0.00 | 0.00 | 0.00 | 88 | 1004.1 |
| 20260508070226 | 49 | 0 | 4.0 | 5.0 | 0.00 | 0.00 | 0.00 | 88 | 1081.5 |
| 20260508065726 | 49 | 22 | 4.0 | 4.0 | 0.00 | 0.00 | 0.00 | 88 | 1013.4 |
| 20260508065226 | 49 | 292 | 2.0 | 5.0 | 0.00 | 0.00 | 0.00 | 88 | 962.3 |
| 20260508064726 | 49 | 67 | 1.0 | 5.0 | 0.00 | 0.00 | 0.00 | 88 | 1041.7 |
| 20260508064525 | 49 | 0 | 4.0 | 4.0 | 0.00 | 0.00 | 0.00 | 88 | 1055.3 |
| 20260508064226 | 49 | 337 | 2.0 | 6.0 | 0.00 | 0.00 | 0.00 | 88 | 1097.2 |
| 20260508063726 | 49 | 270 | 3.0 | 4.0 | 0.00 | 0.00 | 0.00 | 88 | 1022.8 |
| 20260508063226 | 49 | 0 | 1.0 | 4.0 | 0.00 | 0.00 | 0.00 | 87 | 1003.4 |
| 20260508062726 | 49 | 0 | 2.0 | 3.0 | 0.00 | 0.00 | 0.00 | 87 | 1014.6 |
| 20260508062226 | 49 | 337 | 2.0 | 4.0 | 0.00 | 0.00 | 0.00 | 87 | 1008.4 |
| 20260508061726 | 49 | 45 | 0.0 | 6.0 | 0.00 | 0.00 | 0.00 | 87 | 957.7 |
| 20260508061225 | 49 | 22 | 6.0 | 6.0 | 0.00 | 0.00 | 0.00 | 86 | 929.8 |
| 20260508060726 | 49 | 0 | 1.0 | 4.0 | 0.00 | 0.00 | 0.00 | 86 | 932.7 |
| 20260508060226 | 49 | 315 | 0.0 | 6.0 | 0.00 | 0.00 | 0.00 | 86 | 1052.2 |
| 20260508055726 | 49 | 292 | 5.0 | 6.0 | 0.00 | 0.00 | 0.00 | 85 | 956.0 |
| 20260508055226 | 49 | 315 | 2.0 | 6.0 | 0.00 | 0.00 | 0.00 | 85 | 1062.1 |
| 20260508054726 | 50 | 315 | 3.0 | 4.0 | 0.00 | 0.00 | 0.00 | 85 | 1090.9 |
| 20260508054226 | 50 | 0 | 2.0 | 6.0 | 0.00 | 0.00 | 0.00 | 85 | 1004.1 |
| 20260508053925 | 50 | 315 | 2.0 | 7.0 | 0.00 | 0.00 | 0.00 | 85 | 1036.1 |
| 20260508053726 | 50 | 22 | 2.0 | 7.0 | 0.00 | 0.00 | 0.00 | 85 | 1052.2 |
| 20260508053226 | 50 | 315 | 1.0 | 3.0 | 0.00 | 0.00 | 0.00 | 85 | 932.5 |
| 20260508052726 | 49 | 247 | 0.0 | 6.0 | 0.00 | 0.00 | 0.00 | 85 | 1011.8 |
| 20260508052226 | 50 | 22 | 5.0 | 8.0 | 0.00 | 0.00 | 0.00 | 85 | 1097.2 |
| 20260508051726 | 50 | 22 | 3.0 | 6.0 | 0.00 | 0.00 | 0.00 | 84 | 1052.1 |
| 20260508051226 | 50 | 337 | 5.0 | 5.0 | 0.00 | 0.00 | 0.00 | 84 | 962.2 |
| 20260508050726 | 50 | 0 | 3.0 | 5.0 | 0.00 | 0.00 | 0.00 | 84 | 1046.0 |
| 20260508050625 | 50 | 315 | 4.0 | 6.0 | 0.00 | 0.00 | 0.00 | 84 | 997.8 |
| 20260508050226 | 50 | 337 | 3.0 | 6.0 | 0.00 | 0.00 | 0.00 | 84 | 1016.6 |
| 20260508045726 | 50 | 292 | 4.0 | 5.0 | 0.00 | 0.00 | 0.00 | 84 | 1052.2 |
| 20260508045226 | 50 | 337 | 4.0 | 7.0 | 0.00 | 0.00 | 0.00 | 84 | 1097.2 |
| 20260508044726 | 50 | 270 | 5.0 | 7.0 | 0.00 | 0.00 | 0.00 | 84 | 1016.7 |
| 20260508044226 | 50 | 337 | 3.0 | 7.0 | 0.00 | 0.00 | 0.00 | 84 | 1049.1 |
| 20260508043726 | 50 | 315 | 5.0 | 8.0 | 0.00 | 0.00 | 0.00 | 84 | 1013.0 |
| 20260508043325 | 50 | 315 | 4.0 | 5.0 | 0.00 | 0.00 | 0.00 | 84 | 1001.0 |
| 20260508043226 | 50 | 292 | 4.0 | 6.0 | 0.00 | 0.00 | 0.00 | 84 | 1057.6 |
| 20260508042726 | 50 | 337 | 6.0 | 6.0 | 0.00 | 0.00 | 0.00 | 84 | 1013.5 |
| 20260508042226 | 50 | 292 | 3.0 | 6.0 | 0.00 | 0.00 | 0.00 | 84 | 931.3 |
| 20260508041726 | 50 | 315 | 6.0 | 8.0 | 0.00 | 0.00 | 0.00 | 84 | 929.8 |
| 20260508041226 | 50 | 0 | 2.0 | 4.0 | 0.00 | 0.00 | 0.00 | 84 | 929.3 |
| 20260508040726 | 49 | 292 | 1.0 | 6.0 | 0.00 | 0.00 | 0.00 | 84 | 1055.4 |
| 20260508040226 | 49 | 22 | 0.0 | 4.0 | 0.00 | 0.00 | 0.00 | 84 | 1011.2 |
| 20260508040025 | 49 | 0 | 4.0 | 4.0 | 0.00 | 0.00 | 0.00 | 84 | 967.4 |
| 20260508035726 | 49 | 337 | 3.0 | 4.0 | 0.00 | 0.00 | 0.00 | 84 | 963.0 |
| 20260508035226 | 49 | 337 | 1.0 | 6.0 | 0.00 | 0.00 | 0.00 | 84 | 976.8 |
| 20260508034726 | 49 | 292 | 2.0 | 6.0 | 0.00 | 0.00 | 0.00 | 84 | 1055.5 |
| 20260508034226 | 49 | 337 | 2.0 | 8.0 | 0.00 | 0.00 | 0.00 | 84 | 1053.8 |
| 20260508033726 | 49 | 225 | 0.0 | 7.0 | 0.00 | 0.00 | 0.00 | 84 | 996.1 |
| 20260508033226 | 49 | 315 | 4.0 | 6.0 | 0.00 | 0.00 | 0.00 | 84 | 1039.7 |
| 20260508032725 | 49 | 315 | 5.0 | 8.0 | 0.00 | 0.00 | 0.00 | 84 | 972.8 |
| 20260508032226 | 49 | 337 | 1.0 | 8.0 | 0.00 | 0.00 | 0.00 | 83 | 1020.1 |
| 20260508031726 | 49 | 292 | 4.0 | 8.0 | 0.00 | 0.00 | 0.00 | 83 | 918.9 |
| 20260508031226 | 49 | 0 | 0.0 | 8.0 | 0.00 | 0.00 | 0.00 | 83 | 1081.5 |
| 20260508030726 | 49 | 315 | 7.0 | 7.0 | 0.00 | 0.00 | 0.00 | 83 | 1007.3 |
| 20260508030226 | 49 | 292 | 2.0 | 7.0 | 0.00 | 0.00 | 0.00 | 83 | 977.8 |
| 20260508025726 | 49 | 247 | 5.0 | 6.0 | 0.00 | 0.00 | 0.00 | 83 | 1049.1 |
| 20260508025425 | 50 | 337 | 3.0 | 9.0 | 0.00 | 0.00 | 0.00 | 83 | 1004.2 |
| 20260508025226 | 50 | 337 | 4.0 | 9.0 | 0.00 | 0.00 | 0.00 | 82 | 1053.6 |
| 20260508024726 | 50 | 292 | 2.0 | 6.0 | 0.00 | 0.00 | 0.00 | 82 | 974.8 |
| 20260508024226 | 50 | 0 | 6.0 | 7.0 | 0.00 | 0.00 | 0.00 | 82 | 1005.1 |
| 20260508023726 | 50 | 0 | 4.0 | 6.0 | 0.00 | 0.00 | 0.00 | 82 | 986.4 |
| 20260508023226 | 50 | 22 | 5.0 | 7.0 | 0.00 | 0.00 | 0.00 | 82 | 1051.5 |
| 20260508022727 | 50 | 0 | 6.0 | 6.0 | 0.00 | 0.00 | 0.00 | 82 | 1016.6 |
| 20260508022226 | 50 | 45 | 2.0 | 6.0 | 0.00 | 0.00 | 0.00 | 82 | 1024.1 |
| 20260508022125 | 50 | 0 | 6.0 | 6.0 | 0.00 | 0.00 | 0.00 | 82 | 917.5 |
| 20260508021726 | 50 | 22 | 2.0 | 6.0 | 0.00 | 0.00 | 0.00 | 82 | 980.7 |
| 20260508021226 | 50 | 315 | 4.0 | 8.0 | 0.00 | 0.00 | 0.00 | 82 | 1067.8 |
| 20260508020726 | 50 | 0 | 5.0 | 8.0 | 0.00 | 0.00 | 0.00 | 81 | 1055.4 |
| 20260508020226 | 50 | 0 | 4.0 | 5.0 | 0.00 | 0.00 | 0.00 | 81 | 1003.4 |
| 20260508015726 | 50 | 0 | 5.0 | 8.0 | 0.00 | 0.00 | 0.00 | 81 | 1001.0 |
| 20260508015227 | 50 | 337 | 3.0 | 8.0 | 0.00 | 0.00 | 0.00 | 81 | 981.1 |
| 20260508014825 | 50 | 22 | 6.0 | 8.0 | 0.00 | 0.00 | 0.00 | 81 | 971.1 |
| 20260508014726 | 50 | 337 | 5.0 | 8.0 | 0.00 | 0.00 | 0.00 | 81 | 997.3 |
| 20260508014226 | 50 | 22 | 7.0 | 8.0 | 0.00 | 0.00 | 0.00 | 80 | 968.4 |
| 20260508013726 | 50 | 0 | 7.0 | 8.0 | 0.00 | 0.00 | 0.00 | 80 | 1033.7 |
| 20260508013226 | 50 | 22 | 8.0 | 10.0 | 0.00 | 0.00 | 0.00 | 80 | 922.3 |
| 20260508012726 | 50 | 337 | 7.0 | 8.0 | 0.00 | 0.00 | 0.00 | 80 | 1081.5 |
| 20260508012226 | 50 | 0 | 2.0 | 10.0 | 0.00 | 0.00 | 0.00 | 80 | 1021.5 |
| 20260508011726 | 50 | 0 | 5.0 | 6.0 | 0.00 | 0.00 | 0.00 | 80 | 1081.5 |
| 20260508011525 | 50 | 0 | 4.0 | 6.0 | 0.00 | 0.00 | 0.00 | 80 | 966.6 |
| 20260508011226 | 50 | 337 | 3.0 | 6.0 | 0.00 | 0.00 | 0.00 | 80 | 1078.3 |
| 20260508010726 | 50 | 22 | 2.0 | 6.0 | 0.00 | 0.00 | 0.00 | 79 | 1007.9 |
| 20260508010226 | 50 | 0 | 3.0 | 6.0 | 0.00 | 0.00 | 0.00 | 79 | 967.2 |
| 20260508005726 | 50 | 22 | 3.0 | 8.0 | 0.00 | 0.00 | 0.00 | 79 | 1013.5 |
| 20260508005226 | 50 | 0 | 4.0 | 6.0 | 0.00 | 0.00 | 0.00 | 79 | 972.4 |
| 20260508004726 | 50 | 45 | 3.0 | 8.0 | 0.00 | 0.00 | 0.00 | 79 | 1049.0 |
| 20260508004225 | 50 | 0 | 2.0 | 9.0 | 0.00 | 0.00 | 0.00 | 79 | 950.1 |
| 20260508003726 | 51 | 0 | 3.0 | 6.0 | 0.00 | 0.00 | 0.00 | 79 | 1066.3 |
| 20260508003226 | 51 | 22 | 3.0 | 3.0 | 0.00 | 0.00 | 0.00 | 79 | 1077.4 |
| 20260508002726 | 51 | 337 | 2.0 | 6.0 | 0.00 | 0.00 | 0.00 | 79 | 1071.0 |
| 20260508002226 | 51 | 337 | 6.0 | 6.0 | 0.00 | 0.00 | 0.00 | 79 | 1015.0 |
| 20260508001726 | 51 | 45 | 5.0 | 7.0 | 0.00 | 0.00 | 0.00 | 79 | 1025.0 |
| 20260508001226 | 51 | 337 | 7.0 | 7.0 | 0.00 | 0.00 | 0.00 | 79 | 972.9 |
| 20260508000925 | 51 | 337 | 2.0 | 6.0 | 0.00 | 0.00 | 0.00 | 79 | 1055.3 |
| 20260508000728 | 51 | 22 | 3.0 | 7.0 | 0.00 | 0.00 | 0.00 | 79 | 1007.3 |
| 20260508000227 | 51 | 0 | 10.0 | 11.0 | 0.00 | 0.00 | 0.00 | 79 | 1017.1 |
| 20260507235727 | 51 | 0 | 5.0 | 7.0 | 0.00 | 0.00 | 0.00 | 79 | 971.7 |
| 20260507235226 | 51 | 0 | 3.0 | 8.0 | 0.00 | 0.00 | 0.00 | 79 | 979.7 |
| 20260507234726 | 51 | 22 | 3.0 | 8.0 | 0.00 | 0.00 | 0.00 | 79 | 938.2 |
| 20260507234227 | 51 | 337 | 5.0 | 8.0 | 0.00 | 0.00 | 0.00 | 79 | 1016.6 |
| 20260507233736 | 51 | 337 | 2.0 | 8.0 | 0.00 | 0.00 | 0.00 | 79 | 893.9 |
| 20260507233727 | 51 | 337 | 2.0 | 8.0 | 0.00 | 0.00 | 0.00 | 79 | 893.9 |
| 20260507233626 | 51 | 0 | 4.0 | 8.0 | 0.00 | 0.00 | 0.00 | 79 | 1013.7 |
| 20260507233227 | 51 | 337 | 3.0 | 8.0 | 0.00 | 0.00 | 0.00 | 79 | 930.7 |
| 20260507232727 | 51 | 45 | 6.0 | 7.0 | 0.00 | 0.00 | 0.00 | 79 | 980.9 |
| 20260507232227 | 51 | 337 | 4.0 | 5.0 | 0.00 | 0.00 | 0.00 | 79 | 1010.4 |
| 20260507231727 | 51 | 22 | 4.0 | 8.0 | 0.00 | 0.00 | 0.00 | 79 | 1012.3 |
| 20260507231227 | 51 | 22 | 8.0 | 9.0 | 0.00 | 0.00 | 0.00 | 79 | 1046.0 |
| 20260507230727 | 51 | 22 | 6.0 | 10.0 | 0.00 | 0.00 | 0.00 | 79 | 1036.6 |
| 20260507230326 | 51 | 0 | 5.0 | 10.0 | 0.00 | 0.00 | 0.00 | 79 | 1026.5 |
| 20260507230227 | 51 | 22 | 2.0 | 10.0 | 0.00 | 0.00 | 0.00 | 79 | 975.8 |
| 20260507225727 | 51 | 292 | 4.0 | 8.0 | 0.00 | 0.00 | 0.00 | 79 | 1100.3 |
| 20260507225227 | 51 | 315 | 3.0 | 10.0 | 0.00 | 0.00 | 0.00 | 79 | 983.4 |
| 20260507224727 | 51 | 0 | 2.0 | 10.0 | 0.00 | 0.00 | 0.00 | 79 | 1023.7 |
| 20260507224227 | 51 | 0 | 10.0 | 10.0 | 0.00 | 0.00 | 0.00 | 79 | 1016.2 |
| 20260507223727 | 52 | 22 | 4.0 | 9.0 | 0.00 | 0.00 | 0.00 | 78 | 1052.2 |
| 20260507223227 | 52 | 45 | 2.0 | 9.0 | 0.00 | 0.00 | 0.00 | 78 | 1051.5 |
| 20260507223026 | 52 | 0 | 9.0 | 9.0 | 0.00 | 0.00 | 0.00 | 78 | 1061.5 |
| 20260507222727 | 52 | 0 | 5.0 | 9.0 | 0.00 | 0.00 | 0.00 | 78 | 1052.2 |
| 20260507222227 | 52 | 337 | 4.0 | 6.0 | 0.00 | 0.00 | 0.00 | 78 | 1055.3 |
| 20260507221727 | 52 | 0 | 2.0 | 6.0 | 0.00 | 0.00 | 0.00 | 78 | 961.4 |
| 20260507221227 | 52 | 292 | 1.0 | 8.0 | 0.00 | 0.00 | 0.00 | 78 | 974.7 |
| 20260507220727 | 52 | 337 | 8.0 | 8.0 | 0.00 | 0.00 | 0.00 | 77 | 1012.0 |
| 20260507220227 | 52 | 0 | 3.0 | 10.0 | 0.00 | 0.00 | 0.00 | 78 | 974.8 |
| 20260507215726 | 52 | 90 | 2.0 | 10.0 | 0.00 | 0.00 | 0.00 | 77 | 1052.2 |
| 20260507215227 | 52 | 0 | 3.0 | 7.0 | 0.00 | 0.00 | 0.00 | 77 | 1070.1 |
| 20260507214727 | 52 | 45 | 5.0 | 10.0 | 0.00 | 0.00 | 0.00 | 77 | 1037.3 |
| 20260507214227 | 52 | 337 | 6.0 | 10.0 | 0.00 | 0.00 | 0.00 | 77 | 1094.0 |
| 20260507213727 | 52 | 0 | 5.0 | 8.0 | 0.00 | 0.00 | 0.00 | 77 | 988.4 |
| 20260507213227 | 52 | 0 | 6.0 | 8.0 | 0.00 | 0.00 | 0.00 | 77 | 1053.3 |
| 20260507212727 | 53 | 0 | 5.0 | 7.0 | 0.00 | 0.00 | 0.00 | 77 | 1039.7 |
| 20260507212426 | 53 | 22 | 7.0 | 10.0 | 0.00 | 0.00 | 0.00 | 77 | 1004.1 |
| 20260507212227 | 53 | 22 | 6.0 | 10.0 | 0.00 | 0.00 | 0.00 | 77 | 1019.7 |
| 20260507211727 | 53 | 22 | 5.0 | 8.0 | 0.00 | 0.00 | 0.00 | 76 | 1033.4 |
| 20260507211227 | 53 | 0 | 8.0 | 8.0 | 0.00 | 0.00 | 0.00 | 76 | 1001.0 |
| 20260507210727 | 53 | 22 | 6.0 | 7.0 | 0.00 | 0.00 | 0.00 | 76 | 1100.3 |
| 20260507210227 | 53 | 0 | 4.0 | 4.0 | 0.00 | 0.00 | 0.00 | 76 | 1078.4 |
| 20260507205727 | 53 | 337 | 5.0 | 6.0 | 0.00 | 0.00 | 0.00 | 76 | 1042.8 |
| 20260507205227 | 53 | 0 | 6.0 | 10.0 | 0.00 | 0.00 | 0.00 | 76 | 1001.0 |
| 20260507205126 | 53 | 0 | 7.0 | 7.0 | 0.00 | 0.00 | 0.00 | 76 | 1055.3 |
| 20260507204727 | 53 | 0 | 2.0 | 8.0 | 0.00 | 0.00 | 0.00 | 76 | 1084.6 |
| 20260507204227 | 53 | 315 | 4.0 | 6.0 | 0.00 | 0.00 | 0.00 | 76 | 1042.8 |
| 20260507203727 | 53 | 45 | 2.0 | 6.0 | 0.00 | 0.00 | 0.00 | 76 | 1001.0 |
| 20260507203227 | 53 | 315 | 4.0 | 6.0 | 0.00 | 0.00 | 0.00 | 76 | 1081.5 |
| 20260507202727 | 53 | 337 | 3.0 | 5.0 | 0.00 | 0.00 | 0.00 | 76 | 1036.5 |
| 20260507202227 | 53 | 315 | 3.0 | 6.0 | 0.00 | 0.00 | 0.00 | 76 | 1087.8 |
| 20260507201826 | 53 | 292 | 5.0 | 6.0 | 0.00 | 0.00 | 0.00 | 76 | 1049.1 |
| 20260507201727 | 53 | 292 | 4.0 | 4.0 | 0.00 | 0.00 | 0.00 | 76 | 1075.2 |
| 20260507201227 | 53 | 270 | 2.0 | 6.0 | 0.00 | 0.00 | 0.00 | 76 | 1004.1 |
| 20260507200727 | 53 | 292 | 4.0 | 5.0 | 0.00 | 0.00 | 0.00 | 76 | 1084.7 |
| 20260507200227 | 53 | 67 | 1.0 | 6.0 | 0.00 | 0.00 | 0.00 | 76 | 991.6 |
| 20260507195727 | 54 | 292 | 4.0 | 6.0 | 0.00 | 0.00 | 0.00 | 76 | 1030.2 |
| 20260507195227 | 54 | 292 | 3.0 | 4.0 | 0.00 | 0.00 | 0.00 | 76 | 1075.2 |
| 20260507194727 | 54 | 270 | 2.0 | 5.0 | 0.00 | 0.00 | 0.00 | 76 | 1081.5 |
| 20260507194526 | 54 | 292 | 2.0 | 6.0 | 0.00 | 0.00 | 0.00 | 76 | 1036.5 |
| 20260507194227 | 54 | 292 | 3.0 | 6.0 | 0.00 | 0.00 | 0.00 | 76 | 1062.7 |
| 20260507193727 | 54 | 315 | 4.0 | 4.0 | 0.00 | 0.00 | 0.00 | 76 | 1078.4 |
| 20260507193227 | 54 | 315 | 4.0 | 6.0 | 0.00 | 0.00 | 0.00 | 76 | 1049.3 |
| 20260507192727 | 54 | 315 | 2.0 | 5.0 | 0.00 | 0.00 | 0.00 | 76 | 1042.8 |
| 20260507192227 | 54 | 0 | 3.0 | 4.0 | 0.00 | 0.00 | 0.00 | 76 | 1097.2 |
| 20260507191727 | 54 | 315 | 3.0 | 6.0 | 0.00 | 0.00 | 0.00 | 76 | 1075.2 |
| 20260507191226 | 54 | 315 | 1.0 | 3.0 | 0.00 | 0.00 | 0.00 | 75 | 1081.5 |
| 20260507190727 | 54 | 0 | 0.0 | 25.0 | 0.00 | 0.00 | 0.00 | 75 | 1078.9 |
| 20260507190227 | 54 | 292 | 3.0 | 4.0 | 0.00 | 0.00 | 0.00 | 75 | 1053.7 |
| 20260507185727 | 54 | 292 | 0.0 | 6.0 | 0.00 | 0.00 | 0.00 | 75 | 1084.7 |
| 20260507185227 | 54 | 315 | 5.0 | 7.0 | 0.00 | 0.00 | 0.00 | 75 | 1078.4 |
| 20260507184727 | 54 | 292 | 7.0 | 7.0 | 0.00 | 0.00 | 0.00 | 75 | 1078.4 |
| 20260507184227 | 54 | 337 | 3.0 | 5.0 | 0.00 | 0.00 | 0.00 | 75 | 1036.6 |
| 20260507183926 | 54 | 337 | 3.0 | 7.0 | 0.00 | 0.00 | 0.00 | 75 | 1010.4 |
| 20260507183727 | 54 | 292 | 2.0 | 7.0 | 0.00 | 0.00 | 0.00 | 75 | 1072.1 |
| 20260507183227 | 54 | 315 | 5.0 | 5.0 | 0.00 | 0.00 | 0.00 | 75 | 1078.4 |
| 20260507182737 | 54 | 315 | 5.0 | 8.0 | 0.00 | 0.00 | 0.00 | 75 | 1087.8 |
| 20260507182727 | 54 | 315 | 5.0 | 8.0 | 0.00 | 0.00 | 0.00 | 75 | 1087.8 |
| 20260507182227 | 54 | 315 | 1.0 | 7.0 | 0.00 | 0.00 | 0.00 | 75 | 1084.7 |
| 20260507181727 | 54 | 0 | 4.0 | 7.0 | 0.00 | 0.00 | 0.00 | 75 | 1072.1 |
| 20260507181633 | 54 | 315 | 5.0 | 9.0 | 0.00 | 0.00 | 0.00 | 74 | 1035.0 |
| 20260507181227 | 54 | 337 | 6.0 | 8.0 | 0.00 | 0.00 | 0.00 | 74 | 1066.3 |
| 20260507180727 | 54 | 315 | 5.0 | 9.0 | 0.00 | 0.00 | 0.00 | 74 | 1035.0 |
| 20260507180626 | 54 | 292 | 6.0 | 9.0 | 0.00 | 0.00 | 0.00 | 74 | 1029.5 |
| 20260507180227 | 54 | 315 | 1.0 | 9.0 | 0.00 | 0.00 | 0.00 | 74 | 1016.5 |
| 20260507175727 | 54 | 337 | 4.0 | 9.0 | 0.00 | 0.00 | 0.00 | 74 | 1039.2 |
| 20260507175227 | 55 | 292 | 8.0 | 9.0 | 0.00 | 0.00 | 0.00 | 74 | 1043.7 |
| 20260507174727 | 55 | 315 | 8.0 | 9.0 | 0.00 | 0.00 | 0.00 | 74 | 1075.6 |
| 20260507174227 | 55 | 292 | 9.0 | 10.0 | 0.00 | 0.00 | 0.00 | 73 | 1024.0 |
| 20260507173727 | 55 | 315 | 9.0 | 12.0 | 0.00 | 0.00 | 0.00 | 73 | 1046.0 |
| 20260507173326 | 55 | 292 | 7.0 | 9.0 | 0.00 | 0.00 | 0.00 | 73 | 1065.8 |
| 20260507173227 | 55 | 0 | 6.0 | 9.0 | 0.00 | 0.00 | 0.00 | 73 | 1082.0 |
| 20260507172728 | 55 | 0 | 4.0 | 12.0 | 0.00 | 0.00 | 0.00 | 73 | 1072.1 |
| 20260507172227 | 55 | 337 | 5.0 | 8.0 | 0.00 | 0.00 | 0.00 | 73 | 1087.8 |
| 20260507171727 | 56 | 315 | 6.0 | 8.0 | 0.00 | 0.00 | 0.00 | 73 | 1091.0 |
| 20260507171227 | 56 | 315 | 5.0 | 14.0 | 0.00 | 0.00 | 0.00 | 72 | 1001.0 |
| 20260507170727 | 56 | 315 | 6.0 | 9.0 | 0.00 | 0.00 | 0.00 | 72 | 1059.5 |
| 20260507170227 | 57 | 0 | 9.0 | 12.0 | 0.00 | 0.00 | 0.00 | 72 | 1087.8 |
| 20260507170026 | 57 | 22 | 6.0 | 12.0 | 0.00 | 0.00 | 0.00 | 71 | 1078.4 |
| 20260507165727 | 57 | 315 | 2.0 | 12.0 | 0.00 | 0.00 | 0.00 | 71 | 1090.9 |
| 20260507165227 | 57 | 315 | 10.0 | 10.0 | 0.00 | 0.00 | 0.00 | 70 | 1090.9 |
| 20260507164728 | 57 | 337 | 8.0 | 10.0 | 0.00 | 0.00 | 0.00 | 70 | 962.4 |
| 20260507164227 | 58 | 292 | 6.0 | 9.0 | 0.00 | 0.00 | 0.00 | 69 | 1094.1 |